FW7499 Weather Reports


time (UTC)temp
C
wind
direction
speed
KPH
gust
KPH
rain 1hr
cm
rain 24hr
cm
rain mn
cm
humidity
%
barometer
mb
20260904005503 31 119 1.6 11.3 0.00 0.05 0.05 59 1008.9
20260904005003 31 286 1.6 12.9 0.00 0.05 0.05 59 1008.9
20260904004526 31 90 3.2 12.9 0.00 0.05 0.05 58 1008.8
20260904004004 31 197 1.6 8.0 0.00 0.05 0.05 58 1008.8
20260904003503 32 219 0.0 8.0 0.00 0.05 0.05 59 1008.8
20260904003007 32 213 3.2 8.0 0.00 0.05 0.05 58 1008.8
20260904002506 32 309 1.6 6.4 0.00 0.05 0.05 58 1008.8
20260904002004 32 200 1.6 6.4 0.00 0.05 0.05 57 1008.8
20260904001516 32 225 1.6 6.4 0.00 0.05 0.05 57 1008.8
20260904001006 32 190 1.6 6.4 0.00 0.05 0.05 56 1008.7
20260904000511 32 188 3.2 6.4 0.00 0.05 0.05 56 1008.7
20260904000014 32 200 1.6 9.7 0.00 0.05 0.05 57 1008.6
20260903235509 33 259 1.6 12.9 0.00 0.05 0.05 55 1008.6
20260903235013 33 240 4.8 12.9 0.00 0.05 0.05 55 1008.7
20260903234506 33 279 3.2 12.9 0.00 0.05 0.05 55 1008.6
20260903234009 33 42 4.8 12.9 0.00 0.05 0.05 54 1008.6
20260903233510 33 219 1.6 6.4 0.00 0.05 0.05 56 1008.6
20260903233004 33 66 1.6 12.9 0.00 0.05 0.05 53 1008.6
20260903232508 33 224 4.8 12.9 0.00 0.05 0.05 53 1008.6
20260903232005 33 333 4.8 11.3 0.00 0.05 0.05 53 1008.6
20260903231512 33 209 3.2 11.3 0.00 0.05 0.05 53 1008.6
20260903231005 33 206 1.6 9.7 0.00 0.05 0.05 53 1008.4
20260903230505 33 174 1.6 12.9 0.00 0.05 0.05 52 1008.5
20260903230015 34 173 4.8 11.3 0.00 0.05 0.05 52 1008.5
20260903225510 34 242 1.6 11.3 0.00 0.05 0.05 53 1008.4
20260903225005 34 171 3.2 9.7 0.00 0.05 0.05 52 1008.5
20260903224517 35 65 1.6 8.0 0.00 0.05 0.05 52 1008.4
20260903224011 35 114 1.6 11.3 0.00 0.05 0.05 51 1008.3
20260903223514 35 212 3.2 12.9 0.00 0.05 0.05 52 1008.3
20260903223010 35 242 1.6 14.5 0.00 0.05 0.05 53 1008.3
20260903222516 35 274 1.6 14.5 0.00 0.05 0.05 52 1008.3
20260903222018 35 12 4.8 12.9 0.00 0.05 0.05 52 1008.4
20260903221505 35 179 4.8 14.5 0.00 0.05 0.05 53 1008.3
20260903221006 35 336 3.2 14.5 0.00 0.05 0.05 52 1008.3
20260903220505 35 295 3.2 19.3 0.00 0.05 0.05 53 1008.4
20260903220013 35 254 3.2 19.3 0.00 0.05 0.05 52 1008.3
20260903215509 35 74 3.2 16.1 0.00 0.05 0.05 51 1008.4
20260903215012 35 163 1.6 16.1 0.00 0.05 0.05 53 1008.4
20260903214519 35 101 3.2 16.1 0.00 0.05 0.05 52 1008.3
20260903214011 35 189 4.8 16.1 0.00 0.05 0.05 52 1008.4
20260903213515 35 79 3.2 12.9 0.00 0.05 0.05 53 1008.4
20260903213010 35 192 4.8 14.5 0.00 0.05 0.05 53 1008.5
20260903212516 35 180 3.2 14.5 0.00 0.05 0.05 51 1008.5
20260903212011 35 126 3.2 11.3 0.00 0.05 0.05 52 1008.4
20260903211518 35 220 4.8 12.9 0.00 0.05 0.05 51 1008.5
20260903211014 35 159 6.4 12.9 0.00 0.05 0.05 52 1008.5
20260903210518 35 289 1.6 11.3 0.00 0.05 0.05 54 1008.5
20260903210010 35 51 1.6 20.9 0.00 0.05 0.05 54 1008.6
20260903205509 35 152 4.8 20.9 0.00 0.05 0.05 54 1008.7
20260903205009 35 300 4.8 12.9 0.00 0.05 0.05 51 1008.7
20260903204512 35 212 4.8 12.9 0.00 0.05 0.05 51 1008.7
20260903204012 35 128 1.6 19.3 0.00 0.05 0.05 53 1008.8
20260903203511 35 264 4.8 19.3 0.00 0.05 0.05 54 1008.9
20260903203023 35 259 3.2 14.5 0.00 0.05 0.05 52 1008.9
20260903202509 35 342 4.8 14.5 0.00 0.05 0.05 52 1009.0
20260903202014 35 333 4.8 14.5 0.00 0.05 0.05 51 1008.9
20260903201522 35 201 1.6 19.3 0.00 0.05 0.05 53 1009.0
20260903201004 35 201 6.4 19.3 0.00 0.05 0.05 51 1009.0
20260903200504 35 344 3.2 12.9 0.00 0.05 0.05 51 1009.0
20260903200008 35 294 3.2 12.9 0.00 0.05 0.05 51 1009.0
20260903195506 35 55 1.6 14.5 0.00 0.05 0.05 51 1009.1
20260903195008 35 230 3.2 16.1 0.00 0.05 0.05 52 1009.1
20260903194512 34 75 4.8 16.1 0.00 0.05 0.05 55 1009.1
20260903194004 34 209 3.2 17.7 0.00 0.05 0.05 55 1009.1
20260903193509 34 245 4.8 17.7 0.00 0.05 0.05 55 1009.3
20260903193009 33 204 3.2 9.7 0.00 0.05 0.05 56 1009.4
20260903192511 33 165 1.6 9.7 0.00 0.05 0.05 56 1009.4
20260903192003 34 211 4.8 12.9 0.00 0.05 0.05 57 1009.4
20260903191508 33 150 3.2 12.9 0.00 0.05 0.05 55 1009.5
20260903191012 33 236 1.6 8.0 0.00 0.05 0.05 60 1009.7
20260903190504 33 232 1.6 11.3 0.00 0.05 0.05 57 1009.8
20260903190006 33 189 3.2 11.3 0.00 0.05 0.05 58 1009.9
20260903185503 33 205 3.2 14.5 0.00 0.05 0.05 56 1010.0
20260903185007 32 157 4.8 14.5 0.00 0.05 0.05 56 1009.9
20260903184510 33 65 1.6 9.7 0.00 0.05 0.05 58 1009.9
20260903184009 33 178 1.6 9.7 0.00 0.05 0.05 59 1010.1
20260903183513 32 56 1.6 9.7 0.00 0.05 0.05 58 1010.2
20260903183005 33 306 1.6 6.4 0.00 0.05 0.05 58 1010.2
20260903182511 33 102 0.0 14.5 0.00 0.05 0.05 62 1010.4
20260903182011 32 128 1.6 14.5 0.00 0.05 0.05 60 1010.4
20260903181523 32 141 1.6 8.0 0.00 0.05 0.05 59 1010.4
20260903181003 32 315 3.2 8.0 0.00 0.05 0.05 58 1010.6
20260903180512 32 161 1.6 6.4 0.00 0.05 0.05 57 1010.6
20260903180021 32 294 1.6 8.0 0.00 0.05 0.05 60 1010.7
20260903175510 32 229 3.2 8.0 0.00 0.05 0.05 56 1010.7
20260903175004 32 235 1.6 9.7 0.00 0.05 0.05 61 1010.8
20260903174508 31 285 1.6 9.7 0.00 0.05 0.05 58 1010.8
20260903174004 31 313 1.6 9.7 0.00 0.05 0.05 60 1010.7
20260903173504 31 161 3.2 9.7 0.00 0.05 0.05 59 1010.7
20260903173013 31 246 1.6 9.7 0.00 0.05 0.05 60 1010.8
20260903172511 31 205 1.6 12.9 0.00 0.05 0.05 61 1010.9
20260903172013 31 170 3.2 12.9 0.00 0.05 0.05 62 1011.1
20260903171512 30 108 0.0 8.0 0.00 0.05 0.05 65 1011.0
20260903171011 30 179 3.2 9.7 0.00 0.05 0.05 65 1010.9
20260903170510 30 157 3.2 9.7 0.00 0.05 0.05 67 1011.0
20260903170012 29 130 1.6 6.4 0.00 0.05 0.05 65 1011.1
20260903165515 29 223 3.2 6.4 0.00 0.05 0.05 68 1011.3
20260903165008 28 213 1.6 6.4 0.00 0.05 0.05 68 1011.4
20260903164533 28 187 0.0 3.2 0.00 0.05 0.05 69 1011.4
20260903164008 28 212 0.0 3.2 0.00 0.05 0.05 71 1011.3
20260903163506 27 340 1.6 4.8 0.00 0.05 0.05 74 1011.2
20260903163020 27 102 1.6 4.8 0.00 0.05 0.05 73 1011.1
20260903162506 27 265 0.0 3.2 0.00 0.05 0.05 76 1011.2
20260903162010 27 250 1.6 6.4 0.00 0.05 0.05 75 1011.1
20260903161519 27 92 0.0 6.4 0.00 0.05 0.05 71 1011.1
20260903161010 27 161 1.6 6.4 0.00 0.05 0.05 70 1011.2
20260903160510 27 15 0.0 4.8 0.00 0.05 0.05 70 1011.2
20260903160023 27 294 0.0 6.4 0.00 0.05 0.05 69 1011.2
20260903155507 27 175 1.6 6.4 0.00 0.05 0.05 69 1011.2
20260903155020 27 136 1.6 6.4 0.00 0.05 0.05 70 1011.3
20260903154515 27 140 1.6 6.4 0.00 0.05 0.05 69 1011.3
20260903154013 27 103 1.6 4.8 0.00 0.05 0.05 71 1011.3
20260903153515 27 160 0.0 4.8 0.00 0.05 0.05 71 1011.4
20260903153011 27 137 1.6 6.4 0.00 0.05 0.05 70 1011.4
20260903152507 27 108 3.2 11.3 0.00 0.05 0.05 70 1011.5
20260903152008 27 107 1.6 11.3 0.00 0.05 0.05 69 1011.6
20260903151514 26 95 1.6 9.7 0.00 0.05 0.05 73 1011.6
20260903151010 26 100 4.8 9.7 0.00 0.05 0.05 74 1011.5
20260903150514 26 115 1.6 3.2 0.00 0.05 0.05 77 1011.7
20260903150035 26 300 0.0 3.2 0.00 0.05 0.05 75 1011.7
20260903145508 26 300 1.6 4.8 0.00 0.05 0.05 74 1011.6
20260903145012 26 37 0.0 6.4 0.00 0.05 0.05 73 1011.3
20260903144534 26 92 1.6 6.4 0.00 0.05 0.05 73 1011.2
20260903144020 26 240 0.0 9.7 0.00 0.05 0.05 74 1011.2
20260903143511 26 225 0.0 9.7 0.00 0.05 0.05 75 1011.2
20260903143030 25 103 0.0 3.2 0.00 0.05 0.05 76 1011.2
20260903142513 25 108 1.6 3.2 0.00 0.05 0.05 77 1011.2
20260903142010 25 109 0.0 3.2 0.00 0.05 0.05 75 1011.1
20260903141528 25 121 0.0 3.2 0.00 0.05 0.05 75 1011.1
20260903141008 26 121 0.0 3.2 0.00 0.05 0.05 74 1011.1
20260903140509 26 127 0.0 3.2 0.00 0.05 0.05 74 1011.1
20260903140034 26 109 0.0 3.2 0.00 0.05 0.05 75 1011.0
20260903135513 26 22 0.0 4.8 0.00 0.05 0.05 74 1011.0
20260903135014 26 216 0.0 4.8 0.00 0.05 0.05 79 1011.0
20260903134523 25 127 0.0 3.2 0.00 0.05 0.05 78 1011.0
20260903134014 25 127 0.0 3.2 0.00 0.05 0.05 77 1011.0
20260903133513 25 123 0.0 3.2 0.00 0.05 0.05 77 1011.1
20260903133021 25 123 0.0 3.2 0.00 0.05 0.05 77 1011.2
20260903132510 25 123 0.0 3.2 0.00 0.05 0.05 77 1011.2
20260903132014 25 123 0.0 3.2 0.00 0.05 0.05 77 1011.2
20260903131524 24 145 0.0 4.8 0.00 0.05 0.05 79 1011.3
20260903131015 24 103 1.6 4.8 0.00 0.05 0.05 79 1011.4
20260903130512 24 105 0.0 4.8 0.00 0.05 0.05 80 1011.5
20260903130017 23 33 0.0 3.2 0.00 0.05 0.05 83 1011.4
20260903125511 23 33 0.0 3.2 0.00 0.05 0.05 83 1011.4
20260903125010 23 352 0.0 3.2 0.00 0.05 0.05 84 1011.5
20260903124520 23 352 0.0 0.0 0.00 0.05 0.05 84 1011.6
20260903124013 23 352 0.0 0.0 0.00 0.05 0.05 85 1011.5
20260903123513 23 352 0.0 3.2 0.00 0.05 0.05 84 1011.6
20260903123032 23 352 0.0 3.2 0.00 0.05 0.05 84 1011.6
20260903122515 23 352 0.0 0.0 0.00 0.05 0.05 82 1011.4
20260903122016 23 352 0.0 0.0 0.00 0.05 0.05 84 1011.3
20260903121521 23 352 0.0 3.2 0.00 0.05 0.05 83 1011.2
20260903121014 23 352 0.0 3.2 0.00 0.05 0.05 82 1011.1
20260903120518 23 352 0.0 3.2 0.00 0.05 0.05 82 1011.0
20260903120027 23 352 0.0 1.6 0.00 0.05 0.05 84 1011.0
20260903115512 23 352 0.0 1.6 0.00 0.05 0.05 85 1011.0
20260903115017 23 352 0.0 3.2 0.00 0.05 0.05 84 1011.0
20260903114522 23 9 0.0 3.2 0.00 0.05 0.05 86 1011.0
20260903114011 23 9 0.0 3.2 0.00 0.05 0.05 87 1011.0
20260903113515 22 9 0.0 3.2 0.00 0.05 0.05 87 1010.9
20260903113026 22 9 0.0 3.2 0.00 0.05 0.05 88 1010.9
20260903112515 22 9 0.0 3.2 0.00 0.05 0.05 88 1010.8
20260903112015 22 9 0.0 3.2 0.00 0.05 0.05 89 1010.7
20260903111527 22 9 0.0 3.2 0.00 0.05 0.05 89 1010.6
20260903111004 22 10 0.0 3.2 0.03 0.05 0.05 88 1010.6
20260903110505 22 9 0.0 3.2 0.05 0.05 0.05 88 1010.6
20260903110004 22 10 0.0 3.2 0.05 0.05 0.05 87 1010.7
20260903105504 22 186 0.0 3.2 0.05 0.05 0.05 88 1010.7
20260903105002 22 186 0.0 3.2 0.05 0.05 0.05 87 1010.8
20260903104504 22 186 0.0 3.2 0.05 0.05 0.05 87 1010.9
20260903104004 22 186 0.0 3.2 0.05 0.05 0.05 87 1010.8
20260903103503 22 186 0.0 3.2 0.05 0.05 0.05 86 1010.9
20260903103003 22 186 0.0 1.6 0.05 0.05 0.05 85 1011.0
20260903102503 23 186 0.0 3.2 0.05 0.05 0.05 84 1011.0
20260903102004 23 186 0.0 3.2 0.05 0.05 0.05 81 1011.0
20260903101503 25 186 0.0 3.2 0.05 0.05 0.05 78 1011.0
20260903101007 26 186 1.6 4.8 0.03 0.03 0.03 70 1010.9
20260903100504 26 259 1.6 6.4 0.00 0.00 0.00 64 1011.0
20260903100004 26 254 1.6 6.4 0.00 0.00 0.00 64 1010.8
20260903095505 26 175 1.6 8.0 0.00 0.00 0.00 64 1010.6
20260903095003 26 225 1.6 8.0 0.00 0.00 0.00 64 1010.6
20260903094504 26 232 3.2 9.7 0.00 0.00 0.00 64 1010.5
20260903094005 26 194 1.6 9.7 0.00 0.00 0.00 64 1010.5
20260903093505 26 211 1.6 9.7 0.00 0.00 0.00 64 1010.5
20260903093003 26 186 1.6 6.4 0.00 0.00 0.00 64 1010.6
20260903092503 26 140 3.2 8.0 0.00 0.00 0.00 64 1010.6
20260903092003 26 252 1.6 8.0 0.00 0.00 0.00 64 1010.6
20260903091508 26 188 1.6 8.0 0.00 0.00 0.00 64 1010.6
20260903091004 26 187 0.0 6.4 0.00 0.00 0.00 64 1010.6
20260903090504 26 194 0.0 4.8 0.00 0.00 0.00 64 1010.6
20260903090015 26 144 1.6 4.8 0.00 0.00 0.00 64 1010.6
20260903085503 27 344 0.0 6.4 0.00 0.00 0.00 63 1010.6
20260903085002 27 173 1.6 6.4 0.00 0.00 0.00 63 1010.6
20260903084522 26 211 0.0 8.0 0.00 0.00 0.00 64 1010.6
20260903084005 27 168 0.0 8.0 0.00 0.00 0.00 63 1010.6
20260903083504 27 161 1.6 8.0 0.00 0.00 0.00 63 1010.6
20260903083010 27 173 1.6 6.4 0.00 0.00 0.00 62 1010.6
20260903082504 27 207 1.6 4.8 0.00 0.00 0.00 63 1010.6
20260903082003 27 215 1.6 4.8 0.00 0.00 0.00 62 1010.7
20260903081503 27 191 0.0 4.8 0.00 0.00 0.00 63 1010.6
20260903081004 27 227 1.6 8.0 0.00 0.00 0.00 61 1010.6
20260903080504 27 42 1.6 8.0 0.00 0.00 0.00 61 1010.7
20260903080008 27 144 1.6 6.4 0.00 0.00 0.00 61 1010.7
20260903075505 27 352 1.6 4.8 0.00 0.00 0.00 61 1010.7
20260903075005 27 230 0.0 3.2 0.00 0.00 0.00 62 1010.7
20260903074509 27 342 0.0 6.4 0.00 0.00 0.00 62 1010.6
20260903074006 27 55 0.0 6.4 0.00 0.00 0.00 63 1010.7
20260903073508 27 100 0.0 3.2 0.00 0.00 0.00 63 1010.7
20260903073009 27 159 0.0 3.2 0.00 0.00 0.00 62 1010.7
20260903072505 27 186 0.0 9.7 0.00 0.00 0.00 62 1010.7
20260903072007 27 170 1.6 9.7 0.00 0.00 0.00 62 1010.6
20260903071511 27 241 0.0 6.4 0.00 0.00 0.00 61 1010.7
20260903071003 27 264 1.6 6.4 0.00 0.00 0.00 61 1010.7
20260903070507 27 198 0.0 4.8 0.00 0.00 0.00 62 1010.8
20260903070010 27 174 0.0 12.9 0.00 0.00 0.00 62 1010.7
20260903065506 27 198 1.6 12.9 0.00 0.00 0.00 61 1010.8
20260903065005 27 254 1.6 8.0 0.00 0.00 0.00 61 1010.8
20260903064510 27 214 1.6 8.0 0.00 0.00 0.00 60 1010.7
20260903064006 28 140 3.2 8.0 0.00 0.00 0.00 60 1010.7
20260903063505 28 253 1.6 12.9 0.00 0.00 0.00 60 1010.7
20260903063011 28 186 1.6 12.9 0.00 0.00 0.00 60 1010.7
20260903062507 27 246 1.6 6.4 0.00 0.00 0.00 61 1010.8
20260903062006 28 255 1.6 6.4 0.00 0.00 0.00 60 1010.8
20260903061511 28 330 0.0 6.4 0.00 0.00 0.00 60 1010.7
20260903061008 28 215 1.6 4.8 0.00 0.00 0.00 60 1010.8
20260903060506 28 171 1.6 8.0 0.00 0.00 0.00 60 1010.9
20260903060013 28 234 1.6 8.0 0.00 0.00 0.00 60 1010.9
20260903055508 28 255 1.6 4.8 0.00 0.00 0.00 60 1010.9
20260903055007 28 190 0.0 11.3 0.00 0.00 0.00 60 1010.9
20260903054511 28 225 1.6 11.3 0.00 0.00 0.00 59 1010.8
20260903054008 28 245 0.0 6.4 0.00 0.00 0.00 60 1010.9
20260903053508 28 177 0.0 6.4 0.00 0.00 0.00 60 1010.8
20260903053026 28 257 0.0 14.5 0.00 0.00 0.00 59 1010.8
20260903052507 28 215 3.2 14.5 0.00 0.00 0.00 59 1010.8
20260903052010 28 230 1.6 9.7 0.00 0.00 0.00 58 1010.8
20260903051513 28 200 1.6 9.7 0.00 0.00 0.00 58 1010.7
20260903051010 28 304 1.6 9.7 0.00 0.00 0.00 58 1010.8
20260903050509 28 159 3.2 11.3 0.00 0.00 0.00 57 1010.8
20260903050016 28 195 3.2 8.0 0.00 0.00 0.00 58 1010.8
20260903045510 28 200 3.2 8.0 0.00 0.00 0.00 57 1010.8
20260903045008 28 295 3.2 11.3 0.00 0.00 0.00 58 1010.9
20260903044519 28 110 1.6 11.3 0.00 0.00 0.00 58 1010.9
20260903044011 28 221 1.6 8.0 0.00 0.00 0.00 58 1010.9
20260903043516 28 317 0.0 8.0 0.00 0.00 0.00 57 1010.9
20260903043028 28 213 1.6 9.7 0.00 0.00 0.00 57 1010.9
20260903042510 28 175 1.6 9.7 0.00 0.00 0.00 57 1010.8
20260903042008 28 242 1.6 8.0 0.00 0.00 0.00 58 1010.8
20260903041520 28 207 1.6 9.7 0.00 0.00 0.00 58 1010.8
20260903041010 28 193 1.6 9.7 0.00 0.00 0.00 58 1010.8
20260903040511 28 227 1.6 8.0 0.00 0.00 0.00 58 1010.8
20260903040016 28 131 0.0 8.0 0.00 0.00 0.00 59 1010.8
20260903035510 28 227 1.6 4.8 0.00 0.00 0.00 58 1010.7
20260903035011 28 315 1.6 4.8 0.00 0.00 0.00 58 1010.8
20260903034518 29 253 1.6 12.9 0.00 0.00 0.00 58 1010.7
20260903034010 29 240 3.2 12.9 0.00 0.00 0.00 58 1010.7
20260903033512 29 124 1.6 9.7 0.00 0.00 0.00 57 1010.7
20260903033017 29 177 3.2 9.7 0.00 0.00 0.00 57 1010.7
20260903032515 29 203 1.6 4.8 0.00 0.00 0.00 58 1010.7
20260903032013 29 172 1.6 8.0 0.00 0.00 0.00 57 1010.7
20260903031518 29 229 1.6 8.0 0.00 0.00 0.00 57 1010.7
20260903031009 29 163 1.6 11.3 0.00 0.00 0.00 56 1010.7
20260903030511 30 227 4.8 11.3 0.00 0.00 0.00 56 1010.7
20260903030022 30 172 3.2 11.3 0.00 0.00 0.00 56 1010.8
20260903025512 30 167 1.6 6.4 0.00 0.00 0.00 57 1010.7
20260903025011 30 237 0.0 4.8 0.00 0.00 0.00 56 1010.6
20260903024521 30 202 1.6 9.7 0.00 0.00 0.00 56 1010.6
20260903024012 30 297 1.6 9.7 0.00 0.00 0.00 56 1010.6
20260903023512 30 9 1.6 12.9 0.00 0.00 0.00 56 1010.5
20260903023020 30 229 0.0 12.9 0.00 0.00 0.00 55 1010.5
20260903022513 30 211 0.0 8.0 0.00 0.00 0.00 55 1010.4
20260903022011 30 195 1.6 6.4 0.00 0.00 0.00 56 1010.2
20260903021510 30 209 1.6 6.4 0.00 0.00 0.00 55 1010.3
20260903021007 30 225 1.6 6.4 0.00 0.00 0.00 56 1010.2
20260903020508 30 202 1.6 6.4 0.00 0.00 0.00 56 1010.1
20260903020006 30 155 1.6 6.4 0.00 0.00 0.00 56 1010.0
20260903015507 30 123 1.6 4.8 0.00 0.00 0.00 57 1010.0
20260903015012 30 172 1.6 4.8 0.00 0.00 0.00 58 1009.9
20260903014520 30 175 1.6 4.8 0.00 0.00 0.00 58 1009.9
20260903014012 30 128 0.0 6.4 0.00 0.00 0.00 58 1009.9
20260903013507 30 192 0.0 6.4 0.00 0.00 0.00 58 1009.9
20260903013004 30 218 1.6 6.4 0.00 0.00 0.00 57 1009.9
20260903012504 30 130 0.0 3.2 0.00 0.00 0.00 57 1009.8
20260903012006 31 202 0.0 6.4 0.00 0.00 0.00 57 1009.8
20260903011508 31 146 0.0 6.4 0.00 0.00 0.00 57 1009.8
20260903011008 31 201 1.6 6.4 0.00 0.00 0.00 55 1009.7
20260903010507 31 126 0.0 4.8 0.00 0.00 0.00 56 1009.7
20260903010006 31 179 1.6 4.8 0.00 0.00 0.00 55 1009.8